Regional Weather Roundup
Issued by NWS

Home | Current Version | Previous Version | Text Only | Print | Product List | Glossary Off
Versions: 1 2 3 4 5 6 7 8 9 10 11 12 13 14 15 16 17 18 19 20 21 22 23 24 25 26 27 28 29 30 31 32 33 34 35 36 37 38 39 40 41 42 43 44 45 46 47 48 49 50

000
ASUS43 KDTX 180310
RWRMI
MICHIGAN HOURLY REGIONAL WEATHER ROUNDUP
NATIONAL WEATHER SERVICE DETROIT/PONTIAC MI
1100 PM EDT TUE OCT 17 2017

NOTE: "FAIR" INDICATES FEW OR NO CLOUDS BELOW 12,000 FEET WITH NO
SIGNIFICANT WEATHER AND/OR OBSTRUCTION TO VISIBILITY.

MIZ047>049-052>055-059>063-066>070-074>076-081>083-180400-
SOUTHEAST LOWER MICHIGAN

CITY           SKY/WX    TMP DP  RH WIND       PRES   REMARKS
ADRIAN         CLEAR     51  40  65 W5        30.22R
ALMA           CLEAR     53  40  60 S9        30.15R
ANN ARBOR      PTCLDY    49  40  71 S6        30.20R
BAD AXE        CLEAR     53  44  72 SW3       30.14S
CARO           CLEAR     47  42  81 CALM      30.15R
DETROIT CITY   PTCLDY    59  40  49 SW8       30.20R
DETROIT        CLOUDY    54  42  64 S9        30.21R
FLINT          CLOUDY    56  42  59 SW7       30.17R
GROSSE ILE     CLOUDY    57  42  58 SW5       30.20R
HILLSDALE      CLEAR     52  37  58 SW7       30.21S
HOWELL         PTCLDY    54  42  62 S5        30.18S

CITY           SKY/WX    TMP DP  RH WIND       PRES   REMARKS
JACKSON        CLOUDY    56  40  55 S14       30.19S
LAMBERTVILLE   CLEAR     57  40  52 SW6       30.22R
LANSING        PTCLDY    55  41  59 SW9       30.17S
LAPEER         FAIR      50  43  75 S6        30.17S
MASON          CLEAR     57  42  55 SW6       30.18R
MONROE         CLEAR     56  40  56 SW6       30.20S
MT. CLEMENS    MOCLDY    58  42  54 SW8       30.19R
PONTIAC        CLOUDY    56  42  59 SW6       30.18R
PORT HOPE        N/A     58  46  64 SW6       30.11R
PORT HURON     PTCLDY    55  43  62 SW5       30.17S
TRI CITIES     CLEAR     56  45  66 S7        30.14S
MIDLAND        FAIR      52  44  72 SW5       30.12S
TROY           PTCLDY    57  40  53 SW6       30.21R
SAGINAW HB     CLEAR     52  43  71 S8        30.13S
$$
MIZ043>046-050>051-056>058-064>065-071>073-077>080-180400-
SOUTHWEST LOWER MICHIGAN

CITY           SKY/WX    TMP DP  RH WIND       PRES   REMARKS
BATTLE CREEK   CLEAR     53  42  66 S9        30.20R
BENTON HARBOR  CLEAR     57  40  52 S6        30.17R
BIG RAPIDS     CLEAR     48  44  87 S8        30.12S
COLDWATER      CLEAR     54  39  58 SW6       30.21R
FREMONT        FAIR      54  49  81 S3        30.12S
HOLLAND        CLOUDY    61  42  49 SW13      30.16R
GRAND RAPIDS   PTCLDY    57  44  62 S9        30.15R
IONIA          FAIR      55  41  61 S5        30.15S
KALAMAZOO      CLEAR     54  41  61 S7        30.20R
LUDINGTON      CLEAR     60  53  77 SW10      30.08S
MARSHALL       CLEAR     55  40  58 SW5       30.20R
MOUNT PLEASANT CLEAR     58  42  55 SW8       30.11F
MUSKEGON       PTCLDY    61  53  75 S10       30.13R
SOUTH HAVEN    CLEAR     57  41  54 S6        30.17S
$$
MIZ016>042-180400-
NORTHERN LOWER MICHIGAN

CITY           SKY/WX    TMP DP  RH WIND       PRES   REMARKS
ALPENA         CLEAR     45  44  97 CALM      30.09R
BEAVER ISLAND  CLEAR     55  51  83 S5        30.04S
BELLAIRE       CLEAR     43  41  95 CALM      30.08S
CADILLAC       CLEAR     50  45  81 S6        30.10R
CHARLEVOIX     CLEAR     54  46  76 S6        30.08S
FRANKFORT      CLEAR     50  47  89 CALM      30.06S
GAYLORD        CLEAR     48  43  82 S5        30.08S
GRAYLING       CLEAR     40  37  91 CALM      30.10S
HARBOR SPRINGS CLEAR     51  47  86 CALM      30.06F
HOUGHTON LAKE  CLEAR     53  46  77 SW6       30.10S
MANISTEE       CLEAR     48  47  96 CALM      30.07S
OSCODA         CLEAR     47  42  83 SW6       30.10S
PELLSTON       CLEAR     41  40  96 CALM      30.06S
ROGERS CITY    CLEAR     53  46  77 SW6       30.08S
TRAVERSE CITY  CLEAR     57  47  69 S3        30.05S
$$
MIZ007>008-015-180400-
EASTERN UPPER MICHIGAN

CITY           SKY/WX    TMP DP  RH WIND       PRES   REMARKS
KINROSS        CLEAR     47  44  90 S5        30.05S
MACKINAC ISLAN CLEAR     54  49  85 SW8       30.05S
NEWBERRY       CLEAR     50  49  97 S7        30.02S
S. S. MARIE    CLEAR     46  43  89 CALM      30.04R
MUNISING         N/A     54  51  90 S7        29.97F
$$
MIZ004>006-011>014-085-180400-
CENTRAL UPPER MICHIGAN

CITY           SKY/WX    TMP DP  RH WIND       PRES   REMARKS
MANISTIQUE     CLEAR     55  50  81 S6        30.01S
ESCANABA       CLEAR     57  51  80 S7        29.99F
MENOMINEE      CLEAR     54  49  83 SW7       30.01F
SAWYER-GWINN   CLEAR     51  45  79 S10       29.97F
$$
MIZ001>003-009>011-084-180400-
WESTERN UPPER MICHIGAN

CITY           SKY/WX    TMP DP  RH WIND       PRES   REMARKS
IRON MOUNTAIN  CLEAR     54  43  66 S6        29.97F
HOUGHTON       CLEAR     51  43  74 E3        29.90F
COPPER HARBOR    N/A     55  46  71 SW10G21   29.90F
IRONWOOD       CLEAR     58  43  57 S8        29.91F
$$

ABBREVIATIONS USED IN REMARKS
   TC - TEMPERATURE IN CELSIUS
  WCI - WIND CHILL INDEX
   HX - HEAT INDEX
  VSB - VISIBILITY




USA.gov is the U.S. government's official web portal to all federal, state and local government web resources and services.